KC5MUJ-1 Weather Reports


time (UTC)temp
F
wind
direction
speed
knots
gust
knots
rain 1hr
in
rain 24hr
in
rain mn
in
humidity
%
barometer
mb
20220124110000 49 202 0.0 0.0 0.00 0.00 0.00 1016.7
20220124105500 50 202 0.0 0.0 0.00 0.00 0.00 1016.9
20220124105000 50 202 0.0 0.0 0.00 0.00 0.00 1016.9
20220124104459 50 202 0.0 0.0 0.00 0.00 0.00 1016.8
20220124103959 50 202 0.0 0.0 0.00 0.00 0.00 1016.8
20220124103500 50 202 0.0 0.0 0.00 0.00 0.00 1016.8
20220124103000 50 202 0.0 0.0 0.00 0.00 0.00 1016.9
20220124102500 50 202 0.0 0.0 0.00 0.00 0.00 1016.9
20220124101959 50 202 0.0 0.0 0.00 0.00 0.00 1016.9
20220124101459 50 202 0.0 0.0 0.00 0.00 0.00 1017.0
20220124100959 50 202 0.0 0.0 0.00 0.00 0.00 1017.0
20220124100500 50 202 0.0 0.0 0.00 0.00 0.00 1017.3
20220124100000 50 202 0.0 0.0 0.00 0.00 0.00 1017.3
20220124095500 50 202 0.0 0.0 0.00 0.00 0.00 1017.3
20220124094959 50 202 0.0 0.0 0.00 0.00 0.00 1017.3
20220124094501 50 202 0.0 0.0 0.00 0.00 0.00 1017.3
20220124094000 50 202 0.0 0.0 0.00 0.00 0.00 1017.2
20220124093501 50 202 0.0 0.0 0.00 0.00 0.00 1017.5
20220124092959 50 202 0.0 0.0 0.00 0.00 0.00 1017.5
20220124092500 51 202 0.0 0.0 0.00 0.00 0.00 1017.6
20220124092000 51 202 0.0 0.0 0.00 0.00 0.00 1017.8
20220124091501 51 202 0.0 0.0 0.00 0.00 0.00 1017.9
20220124090959 51 198 0.0 0.0 0.00 0.00 0.00 1017.8
20220124090459 51 198 0.0 0.0 0.00 0.00 0.00 1017.8
20220124090000 51 198 0.0 0.0 0.00 0.00 0.00 1017.9
20220124085500 51 198 0.0 0.0 0.00 0.00 0.00 1018.1
20220124085000 51 222 0.0 0.0 0.00 0.00 0.00 1018.3
20220124084500 51 221 0.0 0.0 0.00 0.00 0.00 1018.2
20220124084000 51 221 0.0 0.0 0.00 0.00 0.00 1018.1
20220124083459 51 221 0.0 0.0 0.00 0.00 0.00 1018.4
20220124083000 51 221 0.0 0.0 0.00 0.00 0.00 1018.5
20220124082500 51 221 0.0 0.0 0.00 0.00 0.00 1018.6
20220124081959 51 221 0.0 0.0 0.00 0.00 0.00 1018.7
20220124081500 51 221 0.0 0.0 0.00 0.00 0.00 1018.7
20220124080959 51 221 0.0 0.0 0.00 0.00 0.00 1018.6
20220124080459 51 221 0.0 0.0 0.00 0.00 0.00 1018.8
20220124080000 51 221 0.0 0.0 0.00 0.00 0.00 1018.9
20220124075459 51 221 0.0 0.0 0.00 0.00 0.00 1018.8
20220124074959 51 220 0.0 0.0 0.00 0.00 0.00 1018.8
20220124074459 51 220 0.0 0.0 0.00 0.00 0.00 1018.8
20220124074000 51 221 0.0 0.0 0.00 0.00 0.00 1018.8
20220124073459 51 219 0.0 0.0 0.00 0.00 0.00 1018.9
20220124073000 51 219 0.0 0.0 0.00 0.00 0.00 1019.0
20220124072501 51 219 0.0 0.0 0.00 0.00 0.00 1019.1
20220124072000 51 212 0.0 0.0 0.00 0.00 0.00 1019.2
20220124071459 51 212 0.0 0.0 0.00 0.00 0.00 1019.2
20220124071000 51 211 0.0 0.0 0.00 0.00 0.00 1019.2
20220124070500 51 211 0.0 0.0 0.00 0.00 0.00 1019.3
20220124070000 51 210 0.0 0.0 0.00 0.00 0.00 1019.4
20220124065500 52 209 0.0 0.0 0.00 0.00 0.00 1019.4
20220124064959 52 207 0.0 0.0 0.00 0.00 0.00 1019.4
20220124064459 52 203 0.0 0.0 0.00 0.00 0.00 1019.5
20220124064000 52 203 0.0 0.0 0.00 0.00 0.00 1019.6
20220124063500 52 210 0.0 0.0 0.00 0.00 0.00 1019.6
20220124063001 52 205 0.0 0.0 0.00 0.00 0.00 1019.7
20220124062501 52 204 0.0 0.0 0.00 0.00 0.00 1019.7
20220124062000 52 191 0.0 0.0 0.00 0.00 0.00 1019.6
20220124061501 52 189 0.0 0.0 0.00 0.00 0.00 1019.7
20220124061001 52 205 0.0 0.0 0.00 0.00 0.00 1019.6
20220124060502 52 204 0.0 0.0 0.00 0.00 0.00 1019.6
20220124060001 52 202 0.0 0.0 0.00 0.00 0.00 1019.4
20220124055502 52 202 0.0 0.0 0.00 0.00 0.00 1019.6
20220124055001 52 201 0.0 0.0 0.00 0.00 0.00 1019.9
20220124054500 52 201 0.0 0.0 0.00 0.00 0.00 1019.9
20220124054000 52 199 0.0 0.0 0.00 0.00 0.00 1019.9
20220124053502 52 200 0.0 0.0 0.00 0.00 0.00 1020.0
20220124053001 52 198 0.0 0.0 0.00 0.00 0.00 1020.0
20220124052501 52 198 0.0 0.0 0.00 0.00 0.00 1019.9
20220124052002 52 200 0.0 0.0 0.00 0.00 0.00 1019.8
20220124051500 52 200 0.0 0.0 0.00 0.00 0.00 1019.9
20220124051000 52 200 0.0 0.0 0.00 0.00 0.00 1020.1
20220124050501 52 198 0.0 0.0 0.00 0.00 0.00 1020.3
20220124050001 52 200 0.0 0.0 0.00 0.00 0.00 1020.3
20220124045501 52 200 0.0 0.0 0.00 0.00 0.00 1020.5
20220124045000 52 199 0.0 0.0 0.00 0.00 0.00 1020.3
20220124044500 52 199 0.0 0.0 0.00 0.00 0.00 1020.3
20220124044001 53 199 0.0 0.0 0.00 0.00 0.00 1020.3
20220124043501 53 200 0.0 0.0 0.00 0.00 0.00 1020.6
20220124043001 53 205 0.0 0.0 0.00 0.00 0.00 1020.7
20220124042500 53 204 0.0 0.0 0.00 0.00 0.00 1021.0
20220124042001 53 202 0.0 0.0 0.00 0.00 0.00 1020.9
20220124041500 53 209 0.0 0.0 0.00 0.00 0.00 1021.0
20220124041000 53 207 0.0 0.0 0.00 0.00 0.00 1021.0
20220124040501 53 207 0.0 0.0 0.00 0.00 0.00 1021.1
20220124040000 53 204 0.0 0.0 0.00 0.00 0.00 1020.9
20220124035500 53 204 0.0 0.0 0.00 0.00 0.00 1021.0
20220124035001 53 204 0.0 0.0 0.00 0.00 0.00 1021.3
20220124034500 53 204 0.0 0.0 0.00 0.00 0.00 1021.5
20220124034001 53 203 0.0 0.0 0.00 0.00 0.00 1021.5
20220124033502 53 203 0.0 0.0 0.00 0.00 0.00 1021.2
20220124033000 53 178 0.0 0.0 0.00 0.00 0.00 1021.3
20220124032501 53 177 0.0 0.0 0.00 0.00 0.00 1021.5
20220124032001 53 173 0.0 0.0 0.00 0.00 0.00 1021.6
20220124031501 53 219 0.0 0.0 0.00 0.00 0.00 1021.6
20220124031001 53 205 0.0 0.0 0.00 0.00 0.00 1021.8
20220124030500 53 208 0.0 0.0 0.00 0.00 0.00 1021.7
20220124030000 53 208 0.0 0.0 0.00 0.00 0.00 1021.7
20220124025501 54 209 0.0 0.0 0.00 0.00 0.00 1021.7
20220124025000 54 208 0.0 0.0 0.00 0.00 0.00 1021.5
20220124024501 54 208 0.0 0.0 0.00 0.00 0.00 1021.5
20220124024000 54 208 0.0 0.0 0.00 0.00 0.00 1021.7
20220124023501 54 207 0.0 0.0 0.00 0.00 0.00 1021.4
20220124023000 54 207 0.0 0.0 0.00 0.00 0.00 1021.3
20220124022501 54 192 0.0 0.0 0.00 0.00 0.00 1021.3
20220124022001 54 193 0.0 0.0 0.00 0.00 0.00 1021.3
20220124021500 54 193 0.0 0.0 0.00 0.00 0.00 1021.0
20220124021001 54 192 0.0 0.0 0.00 0.00 0.00 1021.0
20220124020501 54 192 0.0 0.0 0.00 0.00 0.00 1020.8
20220124020002 54 192 0.0 0.0 0.00 0.00 0.00 1020.9
20220124015500 54 192 0.0 0.0 0.00 0.00 0.00 1021.1
20220124015001 54 192 0.0 0.0 0.00 0.00 0.00 1020.9
20220124014500 54 192 0.0 0.0 0.00 0.00 0.00 1020.9
20220124014002 54 192 0.0 0.0 0.00 0.00 0.00 1020.8
20220124013501 54 192 0.0 0.0 0.00 0.00 0.00 1021.1
20220124013001 54 192 0.0 0.0 0.00 0.00 0.00 1021.1
20220124012501 54 190 0.0 0.0 0.00 0.00 0.00 1021.0
20220124012001 54 189 0.0 0.0 0.00 0.00 0.00 1020.9
20220124011501 54 189 0.0 0.0 0.00 0.00 0.00 1020.8
20220124011001 55 192 0.0 0.0 0.00 0.00 0.00 1020.8
20220124010500 55 192 0.0 0.0 0.00 0.00 0.00 1020.9
20220124010000 55 192 0.0 0.0 0.00 0.00 0.00 1020.8
20220124005500 55 192 0.0 0.0 0.00 0.00 0.00 1020.8
20220124005002 55 192 0.0 0.0 0.00 0.00 0.00 1020.5
20220124004501 55 189 0.0 0.0 0.00 0.00 0.00 1020.6
20220124004000 55 189 0.0 0.0 0.00 0.00 0.00 1020.8
20220124003504 55 189 0.0 0.0 0.00 0.00 0.00 1020.5
20220124003000 55 189 0.0 0.0 0.00 0.00 0.00 1020.5
20220124002500 55 189 0.0 0.0 0.00 0.00 0.00 1020.5
20220124002000 55 188 0.0 0.0 0.00 0.00 0.00 1020.8
20220124001501 55 188 0.0 0.0 0.00 0.00 0.00 1020.8
20220124001002 55 188 0.0 0.0 0.00 0.00 0.00 1020.9
20220124000501 55 188 0.0 0.0 0.00 0.00 0.00 1020.8
20220124000000 56 188 0.0 0.0 0.00 0.00 0.00 1020.6
20220123235500 56 188 0.0 0.0 0.00 0.00 0.00 1020.7
20220123235001 56 186 0.0 0.0 0.00 0.00 0.00 1020.8
20220123234501 56 165 0.0 0.0 0.00 0.00 0.00 1020.9
20220123234000 56 164 0.0 0.0 0.00 0.00 0.00 1020.6
20220123233501 56 163 0.0 0.0 0.00 0.00 0.00 1020.9
20220123233001 56 157 0.0 0.0 0.00 0.00 0.00 1020.8
20220123232500 56 157 0.0 0.0 0.00 0.00 0.00 1020.6
20220123232000 56 157 0.0 0.0 0.00 0.00 0.00 1020.6
20220123231501 56 156 0.0 0.0 0.00 0.00 0.00 1020.8
20220123231000 57 155 0.0 0.0 0.00 0.00 0.00 1020.9
20220123230501 57 155 0.0 0.0 0.00 0.00 0.00 1020.9
20220123230001 57 176 0.0 0.0 0.00 0.00 0.00 1021.1
20220123225502 57 175 0.0 0.0 0.00 0.00 0.00 1021.1
20220123225001 57 175 0.0 0.0 0.00 0.00 0.00 1020.9
20220123224501 57 172 0.0 0.0 0.00 0.00 0.00 1021.1
20220123224001 57 179 0.0 0.0 0.00 0.00 0.00 1021.1
20220123223501 57 171 0.0 0.0 0.00 0.00 0.00 1021.2
20220123223001 57 171 0.0 0.0 0.00 0.00 0.00 1021.3
20220123222501 57 212 0.0 0.0 0.00 0.00 0.00 1021.4
20220123222001 57 212 0.0 0.0 0.00 0.00 0.00 1021.4
20220123221502 57 211 0.0 0.0 0.00 0.00 0.00 1021.5
20220123221001 57 211 0.0 0.0 0.00 0.00 0.00 1021.6
20220123220500 57 211 0.0 0.0 0.00 0.00 0.00 1021.5
20220123220000 57 211 0.0 0.0 0.00 0.00 0.00 1021.4
20220123215501 57 211 0.0 0.0 0.00 0.00 0.00 1021.6
20220123215000 57 211 0.0 0.0 0.00 0.00 0.00 1021.7
20220123214501 57 210 0.0 0.0 0.00 0.00 0.00 1021.7
20220123214000 57 207 0.0 0.0 0.00 0.00 0.00 1021.7
20220123213501 57 207 0.0 0.0 0.00 0.00 0.00 1021.8
20220123213002 57 207 0.0 0.0 0.00 0.00 0.00 1022.0
20220123212500 57 207 0.0 0.0 0.00 0.00 0.00 1021.9
20220123212001 57 206 0.0 0.0 0.00 0.00 0.00 1022.1
20220123211501 58 205 0.0 0.0 0.00 0.00 0.00 1022.1
20220123211001 58 250 0.0 0.0 0.00 0.00 0.00 1022.2
20220123210501 58 250 0.0 0.0 0.00 0.00 0.00 1022.3
20220123210000 58 251 0.0 0.0 0.00 0.00 0.00 1022.4
20220123205502 58 260 0.0 0.0 0.00 0.00 0.00 1022.4
20220123205001 58 261 0.0 0.0 0.00 0.00 0.00 1022.6
20220123204501 58 261 0.0 0.0 0.00 0.00 0.00 1022.6
20220123204000 57 261 0.0 0.0 0.00 0.00 0.00 1022.5
20220123203501 57 261 0.0 0.0 0.00 0.00 0.00 1022.5
20220123203001 57 261 0.0 0.0 0.00 0.00 0.00 1022.4
20220123202501 57 248 0.0 0.0 0.00 0.00 0.00 1022.5
20220123202001 57 248 0.0 0.0 0.00 0.00 0.00 1022.7
20220123201501 57 248 0.0 0.0 0.00 0.00 0.00 1022.9
20220123201002 57 248 0.0 0.0 0.00 0.00 0.00 1022.9
20220123200500 57 248 0.0 0.0 0.00 0.00 0.00 1023.0
20220123200000 57 246 0.0 0.0 0.00 0.00 0.00 1023.1
20220123195501 57 257 0.0 0.0 0.00 0.00 0.00 1023.1
20220123195001 57 254 0.0 0.0 0.00 0.00 0.00 1023.4
20220123194501 57 252 0.0 0.0 0.00 0.00 0.00 1023.4
20220123194002 56 228 0.0 0.0 0.00 0.00 0.00 1023.5
20220123193502 56 262 0.0 0.0 0.00 0.00 0.00 1023.7
20220123193001 56 258 0.0 0.0 0.00 0.00 0.00 1023.9
20220123192500 56 256 0.0 0.0 0.00 0.00 0.00 1023.9
20220123192001 55 253 0.0 0.0 0.00 0.00 0.00 1024.0
20220123191501 55 246 0.0 0.0 0.00 0.00 0.00 1024.1
20220123191000 55 247 0.0 0.0 0.00 0.00 0.00 1024.2
20220123190501 54 228 0.0 0.0 0.00 0.00 0.00 1024.3
20220123190001 54 227 0.0 0.0 0.00 0.00 0.00 1024.5
20220123185501 54 227 0.0 0.0 0.00 0.00 0.00 1024.8
20220123185001 54 222 0.0 0.0 0.00 0.00 0.00 1024.9
20220123184501 54 218 0.0 0.0 0.00 0.00 0.00 1025.0
20220123184000 54 215 0.0 0.0 0.00 0.00 0.00 1025.2
20220123183501 54 214 0.0 0.0 0.00 0.00 0.00 1025.3
20220123183000 54 213 0.0 0.0 0.00 0.00 0.00 1025.4
20220123182500 53 211 0.0 0.0 0.00 0.00 0.00 1025.5
20220123182000 53 211 0.0 0.0 0.00 0.00 0.00 1025.6
20220123181501 53 211 0.0 0.0 0.00 0.00 0.00 1025.6
20220123181000 53 211 0.0 0.0 0.00 0.00 0.00 1025.8
20220123180500 52 226 0.0 0.0 0.00 0.00 0.00 1025.8
20220123175959 52 221 0.0 0.0 0.00 0.00 0.00 1025.9
20220123175500 53 218 0.0 0.0 0.00 0.00 0.00 1026.0
20220123175000 53 217 0.0 0.0 0.00 0.00 0.00 1026.2
20220123174459 52 202 0.0 0.0 0.00 0.00 0.00 1026.2
20220123174000 52 219 0.0 0.0 0.00 0.00 0.00 1026.3
20220123173500 52 219 0.0 0.0 0.00 0.00 0.00 1026.4
20220123173000 52 219 0.0 0.0 0.00 0.00 0.00 1026.5
20220123172500 52 218 0.0 0.0 0.00 0.00 0.00 1026.6
20220123172000 51 218 0.0 0.0 0.00 0.00 0.00 1026.7
20220123171501 51 218 0.0 0.0 0.00 0.00 0.00 1026.6
20220123170959 51 219 0.0 0.0 0.00 0.00 0.00 1026.7
20220123170459 51 219 0.0 0.0 0.00 0.00 0.00 1026.6
20220123170000 51 219 0.0 0.0 0.00 0.00 0.00 1026.6
20220123165500 50 225 0.0 0.0 0.00 0.00 0.00 1026.7
20220123165000 50 225 0.0 0.0 0.00 0.00 0.00 1027.0
20220123164459 50 225 0.0 0.0 0.00 0.00 0.00 1027.1
20220123164000 50 225 0.0 0.0 0.00 0.00 0.00 1027.2
20220123163459 49 225 0.0 0.0 0.00 0.00 0.00 1027.3
20220123163000 49 225 0.0 0.0 0.00 0.00 0.00 1027.5
20220123162459 49 225 0.0 0.0 0.00 0.00 0.00 1027.4
20220123162000 48 225 0.0 0.0 0.00 0.00 0.00 1027.5
20220123161459 48 225 0.0 0.0 0.00 0.00 0.00 1027.4
20220123160959 48 224 0.0 0.0 0.00 0.00 0.00 1027.3
20220123160501 48 224 0.0 0.0 0.00 0.00 0.00 1027.3
20220123155959 48 224 0.0 0.0 0.00 0.00 0.00 1027.4
20220123155501 48 224 0.0 0.0 0.00 0.00 0.00 1027.3
20220123154959 47 224 0.0 0.0 0.00 0.00 0.00 1027.3
20220123154459 47 224 0.0 0.0 0.00 0.00 0.00 1027.2
20220123154001 47 59 0.0 0.0 0.00 0.00 0.00 1027.2
20220123153459 47 59 0.0 0.0 0.00 0.00 0.00 1027.2
20220123153001 47 59 0.0 0.0 0.00 0.00 0.00 1027.2
20220123152500 46 59 0.0 0.0 0.00 0.00 0.00 1027.2
20220123152000 46 57 0.0 0.0 0.00 0.00 0.00 1027.2
20220123151459 46 57 0.0 0.0 0.00 0.00 0.00 1027.3
20220123151001 46 57 0.0 0.0 0.00 0.00 0.00 1027.2
20220123150502 46 58 0.0 0.0 0.00 0.00 0.00 1027.3
20220123150003 45 58 0.0 0.0 0.00 0.00 0.00 1027.2
20220123145500 45 58 0.0 0.0 0.00 0.00 0.00 1027.3
20220123145000 45 58 0.0 0.0 0.00 0.00 0.00 1027.3
20220123144500 45 58 0.0 0.0 0.00 0.00 0.00 1027.2
20220123144001 45 58 0.0 0.0 0.00 0.00 0.00 1027.1
20220123143459 45 58 0.0 0.0 0.00 0.00 0.00 1027.4
20220123143000 45 58 0.0 0.0 0.00 0.00 0.00 1027.4
20220123142459 44 58 0.0 0.0 0.00 0.00 0.00 1027.5
20220123142000 44 58 0.0 0.0 0.00 0.00 0.00 1027.4
20220123141459 44 58 0.0 0.0 0.00 0.00 0.00 1027.7
20220123141000 44 58 0.0 0.0 0.00 0.00 0.00 1027.5
20220123140459 44 58 0.0 0.0 0.00 0.00 0.00 1027.5
20220123140001 44 58 0.0 0.0 0.00 0.00 0.00 1027.6
20220123135500 44 59 0.0 0.0 0.00 0.00 0.00 1027.5
20220123135000 44 58 0.0 0.0 0.00 0.00 0.00 1027.3
20220123134459 44 58 0.0 0.0 0.00 0.00 0.00 1027.2
20220123134000 44 58 0.0 0.0 0.00 0.00 0.00 1027.2
20220123133459 44 58 0.0 0.0 0.00 0.00 0.00 1027.1
20220123133000 44 58 0.0 0.0 0.00 0.00 0.00 1027.4
20220123132500 44 58 0.0 0.0 0.00 0.00 0.00 1027.3
20220123132000 44 58 0.0 0.0 0.00 0.00 0.00 1027.3
20220123131459 44 58 0.0 0.0 0.00 0.00 0.00 1027.1
20220123130959 44 58 0.0 0.0 0.00 0.00 0.00 1027.1
20220123130500 44 58 0.0 0.0 0.00 0.00 0.00 1027.0
20220123130000 44 58 0.0 0.0 0.00 0.00 0.00 1027.0
20220123125500 44 58 0.0 0.0 0.00 0.00 0.00 1027.0
20220123125001 44 58 0.0 0.0 0.00 0.00 0.00 1027.0
20220123124459 44 58 0.0 0.0 0.00 0.00 0.00 1027.0
20220123123959 44 58 0.0 0.0 0.00 0.00 0.00 1027.0
20220123123500 44 58 0.0 0.0 0.00 0.00 0.00 1027.1
20220123123001 44 58 0.0 0.0 0.00 0.00 0.00 1027.0
20220123122500 44 58 0.0 0.0 0.00 0.00 0.00 1027.0
20220123122001 44 58 0.0 0.0 0.00 0.00 0.00 1026.8
20220123121500 44 58 0.0 0.0 0.00 0.00 0.00 1027.0
20220123121001 44 58 0.0 0.0 0.00 0.00 0.00 1026.9
20220123120459 44 58 0.0 0.0 0.00 0.00 0.00 1027.0
20220123120000 44 58 0.0 0.0 0.00 0.00 0.00 1027.0
20220123115500 44 58 0.0 0.0 0.00 0.00 0.00 1027.2
20220123115000 44 58 0.0 0.0 0.00 0.00 0.00 1027.1
20220123114500 44 58 0.0 0.0 0.00 0.00 0.00 1027.0
20220123113959 44 58 0.0 0.0 0.00 0.00 0.00 1027.0
20220123113459 44 58 0.0 0.0 0.00 0.00 0.00 1027.0
20220123113000 44 58 0.0 0.0 0.00 0.00 0.00 1027.1
20220123112500 44 58 0.0 0.0 0.00 0.00 0.00 1027.2
20220123112000 44 58 0.0 0.0 0.00 0.00 0.00 1027.1
20220123111500 44 58 0.0 0.0 0.00 0.00 0.00 1027.1
20220123111000 44 58 0.0 0.0 0.00 0.00 0.00 1027.1
20220123110500 44 58 0.0 0.0 0.00 0.00 0.00 1027.3